Regional Weather Roundup
Issued by NWS

Home | Current Version | Previous Version | Text Only | Print | Product List | Glossary On
Versions: 1 2 3 4 5 6 7 8 9 10 11 12 13 14 15 16 17 18 19 20 21 22 23 24 25 26 27 28 29 30 31
000
ASUS45 KGTF 191510
RWRMT
MONTANA HOURLY WEATHER ROUNDUP
NATIONAL WEATHER SERVICE GREAT FALLS MT
900 AM MDT SUN APR 19 2015

NOTE: "FAIR" INDICATES FEW OR NO CLOUDS BELOW 12000 FEET WITH NO
SIGNIFICANT WEATHER AND/OR OBSTRUCTIONS TO VISIBILITY.

MTZ001>007-043-191600-
WEST OF THE DIVIDE

CITY           SKY/WX    TMP DP  RH WIND       PRES   REMARKS
KALISPELL      SUNNY     46  28  49 NE8       30.22S
MISSOULA       SUNNY     43  26  51 E13       30.23F
BUTTE          MOSUNNY   33  24  69 CALM      30.22F
DEER LODGE       N/A     34  27  75 SE6       30.27F WCI  29
EUREKA           N/A     43  28  56 CALM      30.26S
HAMILTON         N/A     43  27  52 SE3       30.22S
LIBBY            N/A     39  27  60 CALM      30.24S
$$

MTZ008-052>055-191600-
SOUTHWEST MONTANA

CITY           SKY/WX    TMP DP  RH WIND       PRES   REMARKS
BOZEMAN        SUNNY     35  26  69 CALM      30.25F
DILLON         SUNNY     35  26  69 SW3       30.23S
$$

MTZ009-010-012-014-046-048-049-054-191600-
EAST SLOPES AND CENTRAL MONTANA

CITY           SKY/WX    TMP DP  RH WIND       PRES   REMARKS
CUT BANK       CLOUDY    36  29  75 CALM      30.25F
GREAT FALLS    MOSUNNY   40  31  70 SW6       30.25F
MALMSTROM AFB  MOSUNNY   39  34  80 SW5       30.26F
HELENA         PTSUNNY   38  28  67 CALM      30.25F
$$

MTZ011-013-016-021-045-047-050-051-191600-
NORTH CENTRAL MONTANA

CITY           SKY/WX    TMP DP  RH WIND       PRES   REMARKS
HAVRE          SUNNY     37  23  56 W8        30.27F WCI  31
LEWISTOWN      SUNNY     36  23  59 W6        30.24F WCI  31
FORT BENTON      N/A     39  30  70 NE3       30.29S
$$

MTZ017>020-022>042-056>058-061-062-191600-
EASTERN PLAINS

CITY           SKY/WX    TMP DP  RH WIND       PRES   REMARKS
BAKER          MOSUNNY   40  27  59 NW29G37   30.09F
BILLINGS       SUNNY     42  24  49 VRB6      30.25S
GLASGOW        MOSUNNY   41  28  60 NW22      30.17S
JORDAN           N/A     41  25  53 NW15      30.19S
LIVINGSTON     PTSUNNY   34  24  67 NW6       30.24F WCI  29
MILES CITY     SUNNY     44  26  49 NW25G31   30.16F
SIDNEY         CLOUDY    43  30  61 NW24G30   30.06S
WOLF POINT     CLOUDY    43  30  60 NW21G31   30.14S
BIG TIMBER       N/A     37  27  65 W8        30.24  WCI  31
FORSYTH          N/A     43  21  42 W15G25    30.19F
PLENTYWOOD       N/A     39  30  70 NW24G31   30.04R WCI  28
POPLAR           N/A     39  30  70 NW16G29   30.11S WCI  30
$$

REGIONAL REPORTS...DAKOTAS

CITY           SKY/WX    TMP DP  RH WIND       PRES   REMARKS
WILLISTON      CLOUDY    41  34  76 NW20      30.02S
MINOT          PTSUNNY   45  37  73 W22G29    29.88S
DICKINSON      CLOUDY    41  32  70 NW28G36   29.97F
BEACH          CLOUDY    37  28  70 NW26G38   30.07S WCI  26
CROSBY         CLOUDY    37  37 100 NW20G28   30.00R WCI  27
WATFORD CITY   CLOUDY    37  36  93 NW17G24   29.99S WCI  28
BISMARCK       MOSUNNY   45  34  65 NW23G37   29.90F
GRAND FORKS    LGT RAIN  44  43  96 NW14      29.71S FOG
FARGO          LGT RAIN  45  42  89 NW20G32   29.71R FOG
BUFFALO SD       N/A     42  27  55 NW37G46   29.96F
RAPID CITY     SUNNY     44  26  49 NW29G39   30.06F
$$

REGIONAL REPORTS...WYOMING/IDAHO/WASHINGTON

CITY           SKY/WX    TMP DP  RH WIND       PRES   REMARKS
GILLETTE       SUNNY     38  24  57 NW22G28   30.17R WCI  27
SHERIDAN       SUNNY     41  25  53 NW22      30.21S
BUFFALO WY     SUNNY     39  23  52 N21       30.18F WCI  29
CODY           SUNNY     37  27  65 CALM      30.23S
YELLOWSTONE LA   N/A     28  16  60 SE5       30.22F
IDAHO FALLS    PTSUNNY   43  24  47 N12       30.18S
SALMON         MOSUNNY   39  27  60 CALM      30.20S
BOISE          SUNNY     49  26  41 VRB3      30.15S
SPOKANE        PTSUNNY   50  27  40 NE3       30.18S
$$

REGIONAL REPORTS...ALBERTA

CITY           SKY/WX    TMP DP  RH WIND       PRES   REMARKS
EDMONTON       PTSUNNY   41  19  42 W2        30.24F
CALGARY        PTSUNNY   34  21  60 CALM      30.26F
LETHBRIDGE     PTSUNNY   36  30  80 W5        30.27S
MEDICINE HAT   MOSUNNY   37  27  65 VRB2      30.29R
$$

REGIONAL REPORTS...SASKATCHEWAN

CITY           SKY/WX    TMP DP  RH WIND       PRES   REMARKS
SWIFT CURRENT  PTSUNNY   36  30  80 NW15      30.18F WCI  26
REGINA         CLOUDY    37  32  81 NW25G31   30.07R WCI  26
SASKATOON      MOSUNNY   37  32  81 NW12      30.19R WCI  30
$$



USA.gov is the U.S. government's official web portal to all federal, state and local government web resources and services.